Theta_e
298 298 298 297 298 298 296 296 295 294 293 292 291 291 291 291 292 292 292 291 290 290 290 290 290 290 290 290 289 289 288 287 287 287 286 285 284 284 284 282 281 281
297 296 296 296 296 296 296 296 295 294 293 292 292 292 292 292 292 292 291 290 289 289 289 289 289 289 289 289 288 287 286 286 286 287 285 284 283 283 282 281 281 280
296 295 295 295 295 295 295 296 295 294 294 293 292 292 291 292 291 290 290 289 288 288 288 288 288 288 287 287 286 285 285 285 284 283 284 283 282 282 281 281 280 280
295 295 295 295 295 295 295 295 295 294 293 292 292 291 291 291 290 289 288 288 287 287 286 286 286 286 285 285 285 284 284 284 283 283 282 282 282 282 281 281 280 280
294 294 295 295 295 295 295 295 294 294 293 292 291 290 289 289 289 287 286 286 286 285 285 285 285 285 284 284 284 283 283 283 282 282 282 281 281 281 281 280 279 279
294 294 294 294 295 294 294 294 294 294 293 291 290 289 288 288 287 286 285 285 285 285 284 284 284 284 284 283 283 283 282 282 282 281 281 281 280 281 281 280 279 278
294 292 292 294 294 294 294 294 294 293 292 291 289 288 287 286 286 285 285 285 284 284 284 284 284 283 283 283 282 282 281 281 281 281 280 279 280 279 279 279 279 278
294 292 292 292 292 292 292 292 292 292 290 288 287 286 286 286 285 285 284 284 284 283 283 283 283 283 282 282 281 281 281 282 280 280 279 278 278 278 278 279 278 278
293 291 290 290 290 291 290 290 291 289 288 288 286 285 285 285 284 284 284 283 283 283 283 282 282 282 282 281 281 281 280 280 280 279 279 278 278 277 277 278 277 277
292 291 289 289 289 290 290 290 290 289 288 288 286 285 285 284 284 284 283 283 283 282 282 282 282 281 281 280 281 280 280 279 278 278 278 278 278 278 278 278 277 277
291 291 290 289 289 290 290 290 290 289 288 287 286 285 284 283 283 283 283 283 283 282 282 281 281 281 280 280 280 280 280 279 279 278 278 278 278 279 280 278 277 277
291 290 290 290 290 290 290 290 289 288 287 287 286 285 284 283 284 283 283 282 282 282 282 281 281 281 281 280 280 280 279 279 278 278 278 278 278 278 279 278 277 277
291 291 290 290 289 290 290 289 289 288 287 287 286 285 284 283 283 283 282 282 282 281 281 281 281 280 280 280 280 280 279 278 278 278 278 278 278 278 278 278 278 278
291 291 290 290 289 289 289 289 288 288 287 287 286 285 284 283 283 282 281 281 281 281 281 281 280 280 280 280 280 280 279 279 279 278 278 277 277 277 278 278 278 278
290 290 289 289 288 288 287 288 288 287 287 286 286 285 285 283 283 282 281 281 281 281 281 281 281 281 280 280 280 279 279 279 278 278 278 278 278 278 278 278 278 278
290 289 288 288 288 288 287 287 287 287 286 286 285 285 284 283 282 282 281 281 281 281 281 281 281 281 282 284 284 280 279 279 279 279 279 278 278 278 277 278 278 278
289 288 288 287 288 288 287 287 286 286 285 285 285 284 283 283 283 282 281 281 281 281 280 281 281 281 284 287 286 285 280 279 278 278 279 278 278 277 277 277 277 278
289 288 287 287 287 287 287 287 286 286 285 285 285 284 283 283 282 282 282 281 281 280 280 280 280 283 287 288 287 286 284 280 279 279 279 278 278 278 277 277 277 277
288 287 287 287 287 287 287 286 286 286 285 285 285 284 284 283 282 282 282 281 281 280 280 280 279 285 288 289 288 287 285 282 280 279 279 278 278 278 278 277 277 277
289 287 287 286 286 286 286 286 286 285 286 285 285 285 284 283 282 282 282 281 281 280 280 279 278 284 289 289 288 288 286 283 279 279 279 279 278 278 278 278 277 277
289 288 287 286 286 285 285 286 286 286 285 285 285 284 284 283 283 282 282 282 281 281 280 279 279 285 288 289 288 288 287 284 279 279 279 278 278 278 278 278 278 278
289 288 287 286 286 285 285 285 286 285 285 285 285 284 284 284 283 283 282 282 281 281 280 279 279 286 288 288 288 288 287 281 279 279 279 278 278 278 278 278 278 278
289 288 287 286 286 285 285 286 285 285 285 285 284 284 284 283 283 282 282 282 281 280 280 279 279 284 287 287 288 288 285 279 279 279 279 278 278 278 278 278 278 278
288 288 288 287 286 286 285 285 286 286 285 285 284 284 283 283 283 282 282 282 281 280 280 280 279 282 287 288 288 288 283 279 279 279 278 278 278 278 278 278 278 280
288 288 288 287 287 286 286 285 285 285 285 285 284 284 283 283 283 282 282 281 281 281 281 280 279 281 286 287 287 287 283 280 279 278 278 278 277 277 278 278 277 279
287 287 287 287 287 286 285 285 284 284 284 284 284 284 283 283 282 282 281 281 281 280 280 280 279 279 284 286 287 287 285 281 280 278 278 278 278 278 277 277 277 276
Wind_Speed
6 6 7 7 6 6 7 8 7 7 7 6 7 7 8 7 8 7 7 7 6 7 7 7 7 7 7 7 7 7 7 7 6 6 7 7 7 8 8 7 6 7
6 6 5 5 5 4 5 6 6 7 8 7 6 7 7 8 8 8 8 8 7 7 7 7 7 8 8 8 8 8 7 7 7 5 8 8 7 8 8 8 8 7
7 6 7 8 7 7 6 5 5 6 7 6 7 7 7 8 9 7 8 8 8 8 7 7 7 7 8 7 8 8 8 8 8 6 8 8 7 8 7 8 7 7
8 8 8 8 7 7 7 6 6 5 5 6 8 8 8 8 8 8 8 8 8 8 7 7 8 7 7 8 9 8 8 8 8 9 9 7 7 8 8 8 8 7
10 9 8 8 7 7 7 8 8 7 8 7 7 8 9 9 9 8 8 8 8 8 8 8 7 8 8 9 9 9 8 9 8 9 9 8 6 8 7 8 9 8
9 9 9 9 9 8 8 9 9 9 8 8 9 8 9 9 10 10 9 9 8 9 9 8 9 8 9 9 9 9 9 9 8 9 10 10 7 6 6 7 8 8
10 9 10 9 9 9 9 10 9 9 8 7 7 8 9 10 10 10 9 9 10 10 10 10 9 9 8 9 9 9 8 9 9 9 10 8 9 8 5 7 7 8
10 9 9 9 10 9 9 9 9 9 7 7 9 8 9 10 10 9 8 9 9 10 10 9 9 9 8 9 10 10 9 7 9 10 10 9 8 9 7 6 7 8
10 10 10 10 10 9 9 9 8 7 6 9 8 8 7 8 9 9 9 9 8 10 10 9 10 9 8 9 10 11 11 9 9 10 11 11 10 9 9 8 8 7
11 10 11 11 11 10 10 9 8 7 7 8 8 7 8 7 8 9 9 10 10 10 10 10 10 9 9 9 11 11 11 11 10 9 10 11 11 11 10 9 9 8
12 11 12 12 12 10 11 10 9 8 7 8 8 9 8 8 7 7 9 10 11 11 11 11 11 11 10 9 8 9 11 11 10 9 10 10 11 11 10 10 9 9
13 12 13 13 12 11 11 11 10 9 8 8 9 10 9 9 10 9 10 10 9 10 11 12 11 11 11 11 11 10 9 9 9 9 9 9 9 9 9 8 9 9
14 14 13 12 12 12 10 10 10 9 9 10 9 10 11 10 9 10 8 10 9 9 10 11 11 11 11 11 11 11 11 10 10 9 9 8 8 9 8 8 8 9
13 12 12 12 11 11 11 10 10 10 9 9 9 10 11 11 11 11 8 8 9 9 9 10 11 11 10 10 11 11 11 10 10 10 9 8 8 9 9 8 8 8
10 10 10 11 11 11 11 11 11 10 10 10 10 10 9 9 9 10 10 10 9 9 10 9 11 11 10 11 12 11 10 11 11 12 12 11 10 9 8 8 7 7
9 9 10 10 12 13 12 12 11 11 11 11 11 10 9 9 9 10 11 12 11 10 9 9 9 8 11 17 13 13 13 11 10 10 10 10 11 10 8 7 7 6
9 10 10 12 13 12 11 12 12 11 11 11 10 10 11 11 11 11 11 10 11 11 11 10 9 8 16 16 16 15 11 11 11 11 10 10 10 11 10 9 7 7
11 10 11 11 11 13 13 12 11 10 11 11 11 11 10 9 12 13 12 11 10 11 11 10 9 11 14 15 16 17 13 12 10 10 10 10 10 10 9 9 9 7
10 11 11 11 12 11 10 10 11 10 11 11 12 11 10 12 12 12 12 11 11 12 11 9 7 12 13 14 16 17 16 12 9 10 9 10 10 10 10 9 8 8
11 11 11 11 9 9 9 10 11 13 11 9 9 9 11 11 10 12 11 12 12 12 11 10 9 13 16 16 17 17 17 12 9 11 10 10 11 11 10 10 10 9
12 12 12 11 10 10 10 11 12 10 10 10 10 11 11 12 12 12 12 10 11 11 10 10 10 15 16 16 16 18 18 12 8 9 8 9 9 8 9 9 9 8
11 11 10 10 11 11 12 12 12 12 12 10 9 8 8 7 7 7 9 9 8 9 11 11 9 18 18 18 18 19 19 10 9 9 8 7 8 9 8 8 8 8
11 12 11 12 12 13 14 14 13 12 10 8 9 9 10 10 10 9 8 9 10 9 11 11 9 18 22 21 20 22 16 8 8 8 8 8 8 8 7 7 7 8
12 12 13 13 13 15 14 11 10 8 10 10 12 11 11 10 9 8 8 10 12 12 13 11 10 15 20 19 21 23 14 12 9 9 8 8 6 6 5 5 7 10
11 11 12 13 13 13 11 12 12 12 9 9 9 9 10 9 9 10 9 8 9 10 12 11 7 11 17 16 18 19 14 9 9 8 9 7 7 6 5 6 6 8
9 11 11 12 12 11 10 11 8 8 9 10 8 8 9 9 9 9 10 9 8 8 9 9 9 7 12 17 17 18 15 9 8 9 9 9 7 7 7 6 6 6
Wind_Direction
183 179 180 183 188 182 179 182 181 178 179 171 172 168 169 157 156 158 154 149 148 146 149 147 143 141 140 137 134 126 128 127 117 119 116 115 113 117 113 109 103 113
180 175 174 174 171 161 175 181 182 180 181 176 170 154 148 149 161 157 156 151 150 154 152 147 147 145 142 139 138 131 127 125 120 121 120 114 119 112 116 117 115 115
176 172 176 179 180 181 179 174 183 183 182 173 157 153 151 154 155 159 158 154 153 154 152 149 145 146 141 137 135 134 136 132 127 123 119 126 127 120 127 121 115 120
180 184 183 185 184 182 177 177 189 190 179 164 169 163 155 155 154 157 159 155 152 154 152 148 149 145 141 139 135 134 137 133 136 130 120 118 127 128 129 122 120 115
180 184 186 188 189 180 177 184 187 192 190 179 152 152 151 153 156 160 162 159 154 153 150 149 147 148 145 142 141 136 137 134 139 133 131 132 140 132 134 127 128 124
184 182 185 188 188 184 186 189 191 193 190 170 170 164 164 160 162 165 165 162 159 154 152 151 151 154 150 145 141 142 142 138 146 137 136 138 138 131 131 129 127 125
183 180 186 188 190 191 190 193 195 196 192 179 156 171 162 164 167 169 168 167 159 157 156 156 156 156 153 146 142 142 143 143 144 143 138 139 134 129 123 126 127 127
184 182 185 186 190 191 193 193 196 195 180 159 174 176 171 170 170 168 166 166 162 158 156 156 157 154 152 147 146 144 146 149 147 145 141 139 136 136 138 136 134 131
180 183 184 191 192 194 196 194 194 190 173 171 175 172 178 174 169 166 166 164 165 160 156 157 159 157 157 152 153 152 152 155 155 152 150 148 146 148 147 143 136 142
185 182 184 190 195 196 197 197 194 189 176 177 172 167 175 176 168 167 166 167 167 166 161 158 160 160 157 159 157 156 156 156 158 158 155 152 151 153 154 153 151 147
187 184 188 191 194 195 198 197 197 188 179 178 168 172 176 170 173 168 169 172 173 170 164 165 166 162 159 157 157 159 159 157 159 158 158 156 157 157 156 154 156 157
189 188 193 191 192 194 195 196 193 187 180 182 177 175 175 179 174 176 176 177 177 176 169 167 167 165 163 162 159 157 158 158 158 159 157 153 152 155 155 157 157 159
192 193 189 190 190 190 189 192 193 187 180 184 181 179 178 178 181 178 181 175 177 175 175 169 167 166 163 162 159 160 161 161 160 156 152 149 149 151 154 156 158 159
199 190 187 188 185 185 187 190 189 186 185 183 180 185 184 182 180 178 175 177 180 179 176 170 168 169 165 162 162 163 164 164 160 154 148 146 148 154 158 163 162 160
197 193 187 182 180 183 185 186 186 184 182 183 187 190 187 183 178 175 172 179 181 179 176 176 175 176 170 166 163 164 163 161 163 163 160 155 151 153 159 161 159 152
199 195 190 183 183 188 187 183 183 182 180 186 190 188 182 178 178 180 183 183 178 179 180 178 182 180 177 172 168 167 169 167 164 163 158 155 154 154 157 160 157 147
197 201 190 193 192 185 186 184 184 182 182 186 187 184 184 182 178 184 190 184 183 181 180 184 183 181 177 175 173 165 157 160 163 166 164 159 159 160 162 160 157 158
201 197 197 199 191 193 187 184 181 182 185 185 185 186 187 179 188 192 186 184 183 184 187 186 185 181 177 170 167 164 163 164 165 162 164 165 162 161 159 159 162 162
196 197 200 198 200 194 186 180 182 185 188 188 189 187 178 187 195 188 191 186 184 185 186 184 187 179 172 162 165 169 166 156 167 164 162 166 164 161 161 163 164 164
197 196 200 202 195 191 186 183 185 192 192 186 181 182 190 191 191 196 191 189 187 184 182 181 179 180 173 170 169 167 164 159 165 166 168 164 163 166 167 166 168 167
198 195 198 196 192 190 190 193 193 192 186 185 184 187 189 191 190 191 195 192 187 184 182 181 185 180 175 166 165 166 166 155 159 159 162 167 167 164 163 162 166 167
197 195 193 190 192 193 194 196 196 193 189 183 183 187 191 190 199 196 192 190 186 182 182 185 179 177 173 170 166 168 163 158 163 163 161 160 159 165 165 162 163 169
196 195 194 193 193 193 197 197 192 189 186 176 182 184 187 190 190 187 182 180 182 186 187 187 183 183 178 174 171 170 160 155 155 156 164 168 169 165 163 161 171 175
197 196 197 196 194 198 198 195 188 185 185 178 183 183 188 186 181 185 188 188 186 188 190 190 187 185 179 173 171 170 160 161 162 162 163 162 162 162 154 168 181 182
195 196 199 198 200 200 192 188 188 188 180 176 183 181 186 180 184 186 189 192 195 192 185 182 177 185 179 174 173 170 159 162 159 160 161 164 161 166 168 177 186 194
194 196 197 195 197 190 187 188 175 169 173 176 180 181 181 181 182 183 184 187 179 181 184 181 172 175 173 173 179 177 165 159 165 155 169 172 175 172 175 189 191 196